Location: T�bingen+AIT
(48.5342°N, 9.0700°E)
Time: 20:29:45
(UTC+02:00)

Cosmos 2058 Rocket - Pass Details

Date: 14 September 2017
Orbit: 610 x 640 km, 82.5° (Epoch: 19 September)

Event Time Altitude Azimuth Distance (km) Brightness Sun altitude
Exits shadow 21:35:54 - 191° (S) 2,220 5.7 -19.3°
Reaches altitude 10° 21:36:32 10° 191° (S) 1,961 5.4 -19.4°
Maximum altitude 21:40:53 83° 278° (W) 622 3.0 -20.1°
Drops below altitude 10° 21:45:16 10° 8° (N) 1,978 5.9 -20.7°
Sets 21:47:30 0° 10° (N) 2,890 6.8 -21.0°
